ONEWEB-0689

operational
NORAD ID: 61597 Int'l Des: 2024-188 Owner: ONEWEBE Country: UK Constellation: oneweb
LEOCIRCULARPOLARONEWEB_TYPE

ONEWEB-0689について

説明を読み込み中...

リアルタイム位置

3D地球を読み込み中...

次回通過

高度履歴

Altitude vs Time

uPlot chart will show altitude changes over time

軌道要素

1 61597U 24188D 25251.50310198 .00000527 00000-0 14519-2 0 9999
2 61597 87.8744 77.1793 0001839 98.5141 261.6195 13.11418060 47535
Epoch: Sep 8, 2025 • Age: 15 hours

現在のステータス

高度 1219.6 km
速度 7.25 km/s
衛星直下点 20.97°N, 145.18°W
打ち上げ日 Oct 20, 2024
運用期間 0.8 years
タイプ internet

技術仕様

分類 Payload
質量 148.00 kg
乾燥質量 140.00 kg
総質量 148.00 kg
長さ 1.30 m
直径 1.00 m
スパン 5.00 m
形状 Trapezoid+2 pan
製造者 ONEWUS
バスタイプ ARROW
フェーズステータス In Orbit
所有者/国 ONEWEBE/UK

大規模コンステレーション

Loading constellations...